Retour au catalogue

THOR BURNER 2 R/B

ActifSSO
NORAD 4954·ROCKET BODY·🇺🇸 United States

Lancé Feb 17, 1971 depuis Vandenberg Space Force Base

Loading…

Prochains Passages (prochaines 24 heures)

TLE

FraisSource: Space-Track

Époque: Sep 14, 2026, 20:25 UTC

1 04954U 71012B   26257.85117117  .00000112  00000-0  49039-4 0  9999
2 04954  98.3160 109.1842 0035752 324.1234  35.7554 14.39799523908779

Suivez THOR BURNER 2 R/B en temps réel avec AllMySat

Download on the App Store